Vertical_Velocity
-3 9 2 2 3 3 7 9 16 -1 -4 -2 2 -11 1 -6 6 111 -3 -6 -4 -3 -4 -4 -3 -2 -2 -3 5 -1 2 -1 0 0 2 -1 -1 -2 0 1 2 -4 -2 1
-10 3 5 6 0 2 21 13 13 -2 -0 -10 9 -5 -3 -2 -6 -2 -15 -7 -5 -3 -2 -2 -1 -1 -2 -4 2 5 -1 3 1 -2 -1 -2 -3 -2 1 -6 -2 -1 2 -4
-0 16 -7 -4 -1 -1 21 2 -20 8 4 -3 1 -1 0 3 -1 -4 -2 -3 -3 -3 -3 -3 -2 0 -7 2 -2 -3 -4 -5 -3 -3 -1 -3 1 -1 2 2 7 -4 -0 0
13 -12 -11 -9 -3 -4 1 -2 -4 12 -11 1 -4 50 24 -6 -5 0 -1 -2 -3 -3 -2 -2 -4 -2 -4 -4 0 1 -0 -1 -1 -2 -0 -3 -7 -2 -6 -2 -1 3 7 -0
-3 -7 -3 -6 20 6 -8 7 -9 11 22 0 7 -7 -0 -1 4 -2 -4 -4 -2 -5 -2 -1 -2 6 2 -1 -0 -1 1 3 0 -3 3 -1 -10 -4 -5 -5 -4 -2 -5 -5
-3 -0 14 3 13 -10 2 -6 -9 3 5 -5 1 -7 -5 -2 25 3 9 -2 -2 2 1 2 1 -3 -0 -0 -0 -0 -1 -1 -0 -2 -1 -2 -2 -4 -2 2 -5 -4 -3 -5
2 -8 -4 2 -11 -1 -5 -7 3 9 3 -2 15 39 23 4 -6 -27 7 -0 0 -1 1 -3 1 0 -0 0 -1 -1 -1 -0 1 1 -1 -2 -2 -3 -4 -5 -4 -3 -3 -1
-4 -23 -5 6 5 -1 -12 4 3 8 -11 11 -6 -8 7 -7 10 -4 -4 -2 -1 1 1 -2 -1 1 -2 -0 0 -1 0 3 1 -0 1 -1 2 2 1 -1 1 3 1 0
0 -3 3 -3 8 -7 60 5 -6 1 -6 -4 2 5 -6 -6 -1 -2 0 0 1 -0 -1 -4 -0 -5 5 1 3 -2 0 0 7 0 3 -1 3 0 2 0 1 -1 -1 -0
4 -8 14 -10 8 3 0 -7 -1 -3 -5 -4 0 -0 16 5 3 0 2 1 2 0 -0 -2 -2 -2 -3 2 7 0 -5 -0 -1 4 -5 4 3 1 3 1 -0 -0 1 1
-5 13 11 -1 2 1 -2 -2 -4 2 -4 -6 -1 13 1 -1 1 3 -2 1 1 -1 -1 -2 -3 2 -4 -1 6 1 -5 0 5 -2 -0 -0 1 -5 -3 0 -0 -1 -1 -1
8 -0 -3 1 -5 -1 -1 -4 -3 -3 3 -5 -4 2 -1 -1 0 0 -0 0 1 2 1 3 -0 4 -2 -3 5 2 -1 -2 -0 0 1 0 1 2 -0 0 -1 -1 2 2
-7 -2 -1 -2 -7 3 1 3 0 -0 -5 2 -2 10 3 -1 0 -1 -1 -5 2 -1 -2 -2 -2 -1 -1 0 -3 5 1 2 -1 0 -0 -1 0 -0 -0 1 0 1 -1 -1
-3 0 -0 -1 2 -3 -5 0 -0 -1 -5 6 -1 5 -7 0 3 -1 5 -0 -4 0 -1 -1 0 -1 -1 0 3 -3 5 -1 -0 0 -0 -3 -1 -1 -1 -1 -1 -2 -2 -2
-3 -2 1 -0 2 -6 2 -3 -1 -1 0 -6 13 -2 5 8 -11 -9 2 8 1 1 1 -1 -0 0 1 5 -1 -1 2 0 2 -4 -1 -2 1 1 1 0 -1 -1 -0 1
0 2 -4 -2 2 -2 1 -3 1 1 3 -0 1 1 2 -6 -4 -2 1 -12 7 0 9 0 1 -2 4 4 1 0 -0 1 2 1 1 1 0 -0 -1 -2 -1 -1 -0 2
-2 0 -1 1 -3 -1 -2 6 -1 0 2 1 -1 6 1 -2 -2 2 7 -2 4 -3 -1 -2 -2 -4 0 -4 3 1 0 1 0 -0 -0 -1 1 3 0 1 -0 1 0 1
-1 -0 -3 2 -2 -6 3 2 1 -1 2 -0 -2 -0 0 -4 8 3 -1 2 8 2 0 2 1 -2 -0 -2 -1 0 -2 -0 4 2 1 1 -1 4 -1 -1 1 4 1 2
-1 -1 -1 -4 -2 2 -2 -3 4 1 5 -8 5 5 -10 8 1 -6 8 5 -5 5 1 1 4 0 0 0 1 -1 -2 -2 -2 1 1 2 1 4 4 6 5 8 0 2
-1 -2 -1 1 -2 -3 -6 3 1 1 -2 8 2 2 -0 0 4 -6 -1 4 -1 -1 -1 -1 2 1 0 1 3 -1 1 0 3 1 1 1 -1 0 3 6 3 6 5 -1
-0 -3 -2 -2 -3 -0 -2 7 -1 -4 1 1 1 -2 6 -3 6 -4 -2 2 0 4 4 -0 0 2 2 3 6 0 1 -0 0 -2 0 1 -0 -0 6 3 4 1 6 -2
-2 -3 1 -3 1 -2 2 -2 0 1 1 4 3 -2 1 -0 2 -4 -1 -0 -3 6 -3 2 -1 -2 -1 0 3 -1 -1 -4 10 4 -2 -2 2 1 -3 -1 -1 -3 -4 -1
-4 -1 1 0 -5 2 -3 2 5 4 -0 -5 7 -7 8 -9 9 1 -3 3 -3 3 4 -1 -1 3 1 -2 -2 1 -0 -0 12 3 4 7 8 8 5 2 -3 -2 -5 -3
4 -0 -0 -0 1 -8 3 0 1 -1 1 -1 2 1 -1 -0 -16 18 0 -3 4 1 -5 3 2 -1 -1 0 1 -0 3 6 7 5 4 5 2 2 0 1 1 -5 -4 -4
-3 4 -0 0 2 -8 -4 14 -6 -1 0 -2 2 -2 2 -2 -0 -7 1 1 -2 4 2 0 0 1 1 1 1 0 2 2 3 4 1 -1 -2 -4 -3 -3 -3 -1 4 -5
-3 2 -1 -5 7 -8 4 -2 -3 3 0 2 0 3 2 -2 -1 -1 -1 1 -0 -1 -1 -1 0 -0 -1 0 0 -1 3 1 0 1 -0 0 -3 -6 -5 -6 -3 0 -3 1
Height
5761 5762 5763 5766 5767 5772 5776 5779 5782 5782 5783 5784 5785 5782 5786 5786 5784 5771 5786 5786 5787 5789 5790 5791 5792 5791 5791 5790 5794 5793 5792 5790 5788 5787 5785 5784 5781 5778 5774 5772 5768 5764 5760 5757
5761 5763 5764 5766 5769 5770 5778 5781 5784 5784 5784 5784 5787 5786 5786 5787 5787 5787 5786 5785 5786 5788 5789 5789 5790 5790 5789 5788 5790 5789 5787 5785 5784 5782 5781 5778 5775 5772 5769 5765 5761 5758 5755 5750
5758 5762 5762 5767 5771 5775 5775 5776 5779 5784 5784 5785 5786 5787 5785 5785 5785 5786 5787 5787 5787 5787 5787 5787 5787 5788 5786 5785 5784 5784 5783 5782 5780 5778 5775 5773 5770 5767 5764 5761 5757 5751 5747 5741
5760 5758 5761 5766 5772 5774 5770 5772 5777 5778 5780 5784 5783 5783 5778 5783 5783 5783 5785 5784 5784 5785 5785 5785 5784 5784 5784 5782 5781 5780 5779 5777 5775 5772 5770 5767 5763 5760 5755 5752 5748 5743 5738 5732
5760 5761 5766 5769 5771 5771 5774 5775 5777 5780 5784 5781 5781 5778 5779 5780 5781 5781 5781 5782 5781 5781 5781 5781 5780 5782 5780 5779 5778 5776 5775 5773 5771 5768 5765 5761 5756 5752 5747 5742 5737 5732 5727 5722
5762 5761 5763 5764 5770 5770 5774 5775 5776 5778 5780 5776 5775 5776 5773 5776 5777 5778 5779 5779 5779 5779 5778 5778 5778 5777 5776 5775 5774 5772 5771 5769 5766 5763 5759 5754 5749 5744 5740 5735 5729 5723 5718 5711
5760 5762 5765 5766 5768 5770 5770 5773 5775 5773 5774 5778 5780 5776 5773 5769 5770 5767 5775 5777 5777 5776 5775 5775 5775 5774 5773 5772 5771 5768 5766 5764 5761 5757 5753 5748 5743 5736 5731 5725 5719 5713 5706 5699
5760 5761 5764 5765 5766 5766 5767 5772 5771 5772 5772 5773 5774 5777 5777 5773 5777 5775 5775 5774 5774 5773 5772 5771 5771 5770 5769 5768 5766 5763 5761 5759 5755 5750 5745 5740 5734 5728 5722 5716 5710 5703 5696 5689
5755 5758 5758 5760 5764 5764 5762 5768 5768 5769 5770 5771 5772 5773 5773 5773 5773 5772 5772 5772 5771 5770 5769 5768 5767 5765 5766 5764 5762 5757 5753 5751 5748 5742 5736 5730 5724 5718 5711 5705 5698 5691 5684 5676
5751 5754 5754 5757 5761 5763 5764 5765 5767 5767 5767 5768 5770 5771 5769 5769 5771 5770 5770 5769 5768 5767 5766 5764 5763 5762 5759 5758 5755 5750 5744 5741 5737 5731 5725 5720 5713 5706 5700 5693 5686 5680 5672 5664
5751 5744 5752 5755 5758 5759 5760 5761 5762 5764 5764 5764 5767 5767 5765 5766 5767 5767 5765 5765 5765 5764 5763 5761 5758 5756 5753 5749 5747 5743 5736 5732 5727 5721 5715 5708 5701 5694 5688 5681 5674 5667 5659 5652
5750 5750 5752 5753 5753 5755 5756 5757 5758 5758 5761 5759 5760 5763 5762 5762 5762 5762 5761 5761 5760 5759 5756 5754 5751 5748 5744 5741 5737 5731 5725 5720 5715 5709 5703 5697 5691 5685 5677 5670 5662 5654 5646 5637
5745 5747 5747 5750 5751 5752 5752 5754 5753 5753 5753 5755 5756 5760 5759 5759 5758 5756 5755 5753 5753 5751 5748 5746 5742 5739 5735 5730 5726 5721 5716 5710 5704 5698 5692 5685 5678 5672 5664 5656 5648 5640 5632 5623
5741 5742 5743 5745 5748 5747 5748 5748 5748 5748 5747 5752 5752 5755 5753 5753 5751 5749 5750 5748 5745 5744 5741 5737 5734 5730 5726 5721 5716 5710 5705 5699 5693 5686 5679 5672 5665 5658 5650 5642 5634 5626 5617 5608
5736 5737 5739 5740 5742 5741 5743 5743 5743 5743 5745 5745 5750 5749 5751 5750 5739 5739 5742 5743 5740 5737 5734 5728 5724 5720 5715 5710 5705 5699 5694 5687 5681 5672 5666 5659 5652 5645 5637 5629 5621 5612 5603 5594
5731 5732 5732 5733 5735 5735 5736 5737 5738 5740 5741 5741 5743 5743 5745 5741 5738 5734 5734 5730 5729 5725 5723 5718 5713 5708 5703 5699 5693 5687 5681 5675 5668 5661 5654 5647 5639 5632 5623 5615 5606 5598 5589 5579
5725 5726 5726 5728 5728 5729 5730 5734 5733 5734 5735 5735 5736 5737 5736 5733 5730 5731 5730 5725 5721 5717 5712 5707 5702 5697 5692 5686 5681 5675 5668 5662 5655 5648 5641 5633 5626 5618 5609 5601 5592 5583 5573 5563
5720 5720 5721 5723 5722 5722 5726 5726 5727 5728 5729 5728 5727 5728 5728 5723 5724 5722 5719 5716 5712 5708 5702 5697 5692 5686 5680 5674 5668 5662 5655 5649 5643 5635 5628 5620 5612 5605 5596 5587 5578 5568 5556 5545
5715 5715 5716 5716 5717 5720 5720 5721 5723 5722 5724 5720 5722 5722 5718 5718 5715 5711 5709 5706 5701 5697 5692 5687 5681 5675 5668 5662 5656 5650 5643 5636 5629 5623 5615 5607 5599 5592 5583 5573 5564 5553 5539 5527
5709 5710 5712 5713 5712 5714 5714 5717 5717 5716 5715 5715 5715 5713 5711 5709 5706 5702 5699 5696 5690 5685 5679 5674 5669 5662 5656 5651 5645 5638 5631 5623 5617 5610 5602 5594 5585 5577 5568 5559 5548 5537 5523 5511
5705 5705 5706 5706 5706 5708 5708 5711 5710 5709 5711 5707 5706 5704 5702 5699 5697 5692 5688 5684 5678 5673 5668 5662 5657 5651 5646 5640 5634 5626 5619 5612 5604 5596 5588 5579 5570 5561 5553 5542 5531 5520 5508 5496
5700 5700 5701 5701 5701 5702 5703 5703 5704 5703 5700 5700 5697 5695 5692 5689 5686 5681 5677 5672 5666 5662 5656 5651 5645 5639 5634 5628 5621 5613 5606 5598 5592 5584 5574 5565 5556 5544 5533 5522 5512 5501 5491 5479
5696 5696 5697 5698 5696 5696 5695 5695 5696 5695 5692 5690 5689 5685 5682 5677 5674 5669 5664 5660 5654 5650 5644 5637 5632 5626 5620 5613 5606 5599 5591 5585 5579 5570 5560 5550 5539 5529 5516 5505 5494 5484 5472 5462
5690 5691 5691 5691 5690 5688 5689 5689 5687 5685 5683 5681 5678 5674 5670 5665 5660 5658 5653 5647 5643 5637 5631 5625 5618 5612 5606 5599 5592 5585 5578 5571 5563 5554 5544 5533 5523 5513 5503 5493 5481 5468 5455 5447
5684 5685 5684 5684 5683 5680 5679 5681 5677 5676 5673 5670 5667 5663 5659 5654 5650 5645 5641 5635 5630 5625 5618 5612 5606 5599 5593 5585 5578 5571 5564 5556 5548 5537 5527 5517 5507 5497 5488 5478 5467 5455 5443 5430
5676 5678 5677 5676 5676 5673 5672 5669 5668 5666 5663 5660 5656 5652 5648 5643 5638 5633 5629 5623 5617 5611 5605 5599 5592 5585 5578 5570 5563 5555 5547 5539 5530 5520 5510 5499 5489 5479 5470 5460 5453 5441 5429 5420